EHI
0 0 0 0 0 0 0 0 0 0 0 0 0 0 0 0 0 0 0 0 0 0 0 0 0 0 0 0 0 0 0 0 0 0 0 0 0 0 0 0 0 0 0
0 0 0 0 0 0 0 0 0 0 0 0 0 0 0 0 0 0 0 0 0 0 0 0 0 0 0 0 0 0 0 0 0 0 0 0 0 0 0 0 0 0 0
0 0 0 0 0 0 0 0 0 0 0 0 0 0 0 0 0 0 0 0 0 0 1 1 1 0 0 0 0 0 0 0 0 0 0 0 0 0 0 0 0 0 0
0 0 0 0 0 0 0 0 0 0 0 0 0 0 0 0 0 0 0 0 0 0 1 1 1 0 0 0 0 0 0 0 0 0 0 0 0 0 0 0 0 0 0
0 0 0 0 0 0 0 0 0 0 0 0 0 0 0 0 0 0 0 0 0 0 0 1 1 0 0 0 0 0 0 0 0 0 0 0 0 0 0 0 0 0 0
0 0 0 0 0 0 0 0 0 0 0 0 0 0 0 0 0 0 0 0 0 0 0 0 0 0 0 0 0 0 0 0 0 0 0 0 0 0 0 0 0 0 0
0 0 0 0 0 0 0 0 0 0 0 0 0 0 0 0 0 0 0 0 0 0 0 0 0 0 0 0 0 0 0 0 0 0 0 0 0 0 0 0 0 0 0
0 0 0 0 0 0 0 0 0 0 0 0 0 0 0 0 0 0 0 0 0 0 0 0 0 0 0 0 0 0 0 0 0 0 0 0 0 0 0 0 0 0 0
0 0 0 0 0 0 0 0 0 0 0 0 0 0 0 0 0 0 0 0 0 0 0 0 0 0 0 0 0 0 0 0 0 0 0 0 0 0 0 0 0 0 0
0 0 0 0 0 0 0 0 0 0 0 0 0 0 0 0 0 0 0 0 0 0 0 0 0 0 0 0 0 0 0 0 0 0 0 0 0 0 0 0 0 0 0
0 0 0 0 0 0 0 0 0 0 0 0 0 0 0 0 0 0 0 0 0 0 0 0 0 0 0 0 0 0 0 0 0 0 0 0 0 0 0 0 0 0 0
0 0 0 0 0 0 0 0 0 0 0 0 0 0 0 0 0 0 0 0 0 0 0 0 0 0 0 0 0 0 0 0 0 0 0 0 0 0 0 0 0 0 0
0 0 0 0 0 0 0 0 0 0 0 0 0 0 0 0 0 0 0 0 0 0 0 0 0 0 0 0 0 0 0 0 0 0 0 0 0 0 0 0 0 0 0
0 0 0 0 0 0 0 0 0 0 0 0 0 0 0 0 0 0 0 0 0 0 0 0 0 0 0 0 0 0 0 0 0 0 0 0 0 0 0 0 0 0 0
0 0 0 0 0 0 0 0 0 0 0 0 0 0 0 0 0 0 0 0 0 0 0 0 1 0 0 0 0 0 0 0 0 0 0 0 0 0 0 0 0 0 0
0 0 0 0 0 0 0 0 0 0 0 0 0 0 0 0 0 0 0 0 0 0 0 0 0 0 0 0 0 0 0 0 0 0 0 0 0 0 0 0 0 0 0
0 0 0 0 0 0 0 0 0 0 0 0 0 0 0 0 0 0 0 0 0 0 0 0 0 0 0 0 0 0 0 0 0 0 0 0 0 0 0 0 0 0 0
0 0 0 0 0 0 0 0 0 0 0 0 0 0 0 0 0 0 0 0 0 0 0 0 0 0 0 0 0 0 0 0 0 0 0 0 0 0 0 0 0 0 0
0 0 0 0 0 0 0 0 0 0 0 0 0 0 0 0 0 0 0 0 0 0 0 0 0 0 0 0 0 0 0 0 0 0 0 0 0 0 0 0 0 0 0
0 0 0 0 0 0 0 0 0 0 0 0 0 0 0 0 0 0 0 0 0 0 0 0 0 0 0 0 0 0 0 0 0 0 0 0 0 0 0 0 0 0 0
0 0 0 0 0 0 0 0 0 0 0 0 0 0 0 0 0 0 0 0 0 0 0 0 0 0 0 0 0 0 0 0 0 0 0 0 0 0 0 0 0 0 0
0 0 0 0 0 0 0 0 0 0 0 0 0 0 0 0 0 0 0 0 0 0 0 0 0 0 0 0 0 0 0 0 0 0 0 0 0 0 0 0 0 0 0
0 0 0 0 0 0 0 0 0 0 0 0 0 0 0 0 0 0 0 0 0 0 0 0 0 0 0 0 0 0 0 0 0 0 0 0 0 0 0 0 0 0 0
0 0 0 0 0 0 0 0 0 0 0 0 0 0 0 0 0 0 0 0 0 0 0 0 0 0 0 0 0 0 0 0 0 0 0 0 0 0 0 0 0 0 0
0 0 0 0 0 0 0 0 0 0 0 0 0 0 0 0 0 0 0 0 0 0 0 0 0 0 0 0 0 0 0 0 0 0 0 0 0 0 0 0 0 0 0
0 0 0 0 0 0 0 0 0 0 0 0 0 0 0 0 0 0 0 0 0 0 0 0 0 0 0 0 0 0 0 0 0 0 0 0 0 0 0 0 0 0 0
Wind_Speed
6 5 4 4 5 4 6 4 3 4 3 2 2 0 2 3 3 3 2 5 6 7 6 5 5 6 6 5 5 5 5 5 6 7 8 8 8 7 6 5 4 3 3
5 5 5 5 5 5 5 5 4 3 3 2 2 1 1 2 2 2 3 4 6 8 6 3 3 5 6 6 5 5 5 5 6 8 8 8 8 8 7 6 4 3 2
7 6 5 5 5 6 7 4 3 2 2 3 3 1 1 2 3 3 4 3 3 6 8 5 2 1 2 4 5 6 6 5 5 6 7 6 6 6 6 5 4 4 3
8 6 5 5 5 6 5 4 4 4 4 3 2 2 2 1 1 3 2 2 3 3 6 9 5 3 3 5 6 7 6 5 5 6 6 6 5 4 4 4 4 5 4
9 7 5 4 7 6 6 5 5 4 4 3 3 3 3 2 1 2 2 1 2 2 2 6 7 7 3 4 6 6 6 5 5 5 5 4 3 2 2 3 4 4 3
9 7 6 7 7 5 5 5 6 5 4 4 5 4 4 4 4 2 2 2 2 2 2 2 2 6 7 4 4 5 5 5 4 4 4 3 2 2 2 3 3 3 3
9 8 6 7 6 6 7 9 7 7 6 5 5 5 5 7 6 4 4 3 3 1 3 1 0 1 5 8 7 4 3 4 4 4 4 2 2 2 2 3 2 2 3
9 8 8 7 8 8 10 11 9 7 6 5 6 5 5 6 6 6 5 4 5 4 3 3 3 2 2 4 6 6 6 3 4 4 3 2 1 1 2 2 2 1 0
9 8 9 8 8 7 6 7 9 10 7 7 7 6 5 5 3 5 7 6 5 4 5 4 4 4 3 3 5 7 5 4 3 3 3 2 2 2 3 3 3 4 5
8 8 9 8 7 6 7 8 8 7 8 7 7 7 8 6 5 4 6 7 7 6 7 5 5 5 4 3 2 4 3 2 2 2 2 3 3 4 5 5 5 6 6
7 7 7 7 7 7 7 7 7 8 7 7 7 6 7 6 10 8 5 5 5 6 7 7 6 5 5 5 4 6 5 3 1 1 2 4 4 5 5 5 5 5 4
4 7 7 7 7 6 7 7 7 8 8 8 7 7 7 6 8 8 8 6 5 4 6 6 6 5 5 5 6 7 6 5 4 3 3 4 4 4 4 4 3 2 1
5 8 8 8 7 7 7 7 7 7 9 9 9 8 7 8 8 7 8 7 6 4 4 5 7 6 6 6 6 9 9 8 7 6 4 3 3 2 2 1 1 1 2
5 7 8 7 8 8 7 7 6 7 7 8 9 9 7 8 8 8 8 7 7 6 6 7 5 7 7 7 6 11 9 12 9 8 7 5 4 3 3 2 0 1 2
5 6 7 8 8 8 8 7 6 8 7 7 7 8 7 7 7 8 7 7 7 6 6 7 5 5 6 7 7 9 10 12 12 10 9 8 6 6 5 5 4 2 2
5 6 8 9 9 9 9 8 7 6 7 6 5 7 7 5 5 6 6 6 7 7 6 4 4 3 3 4 6 9 9 10 12 11 11 10 9 9 8 7 7 6 5
5 6 7 8 9 9 9 8 8 7 7 7 7 7 7 7 5 5 6 6 6 6 7 5 3 4 5 6 4 7 9 9 9 15 14 14 13 12 11 10 9 8 7
3 5 6 7 8 8 8 8 8 7 7 7 7 7 7 5 7 7 6 8 7 7 7 8 6 6 8 8 6 7 7 7 8 12 16 15 15 14 13 12 11 10 9
2 3 5 7 7 7 8 8 8 8 7 7 6 6 5 5 6 6 7 8 7 7 7 7 7 6 6 5 6 7 8 7 8 7 12 15 15 15 14 14 13 12 11
3 2 1 4 5 6 7 7 7 9 8 7 6 4 4 4 4 5 6 7 6 5 6 6 6 5 5 4 4 6 7 6 7 8 9 10 13 16 16 16 15 14 13
4 3 2 1 0 2 3 4 6 9 9 8 7 6 4 1 3 3 4 4 3 2 2 3 4 4 5 4 4 5 6 5 6 6 7 9 10 11 13 16 17 17 15
6 5 4 4 4 4 5 4 7 7 7 6 6 6 5 7 7 6 4 5 6 4 2 2 2 3 3 4 3 3 4 3 4 3 6 7 7 9 9 9 12 16 17
9 8 7 6 7 8 8 4 6 7 7 6 6 7 5 4 5 6 7 8 7 5 4 4 4 2 1 2 3 4 4 4 4 2 3 6 5 6 7 6 7 10 12
9 8 8 8 9 12 13 9 4 5 4 5 6 8 8 8 7 5 5 5 4 3 3 5 3 2 3 3 2 2 2 3 3 2 3 3 2 3 4 4 7 8 9
8 8 8 9 9 11 15 15 11 1 1 3 4 7 8 8 3 1 7 6 5 3 3 5 6 5 5 5 4 3 3 3 3 2 3 2 1 2 3 2 4 3 6
6 6 8 9 9 9 13 14 13 5 4 3 2 4 4 5 2 3 8 7 6 4 3 3 4 4 4 3 4 4 3 3 2 1 2 1 0 1 1 2 3 2 2
Wind_Direction
193 179 187 176 184 168 172 185 205 161 197 187 141 130 99 63 23 355 50 55 13 353 325 293 241 225 227 224 222 206 190 181 170 160 159 159 158 161 164 161 157 151 139
197 196 190 189 190 184 180 192 187 172 185 161 157 145 24 64 62 13 28 96 73 31 6 325 264 247 245 218 198 188 190 181 172 171 173 175 177 179 180 173 173 177 169
200 202 204 193 193 191 191 205 173 188 154 162 199 229 66 3 4 6 24 22 86 77 45 21 358 254 204 181 162 159 170 174 171 168 170 171 175 179 175 171 180 191 200
207 207 214 207 200 195 198 193 209 196 178 194 201 190 209 188 299 350 322 19 37 47 77 52 48 71 145 158 152 143 147 154 153 149 142 138 142 158 178 198 207 209 204
208 207 213 215 199 202 208 202 211 214 205 202 219 216 234 240 267 272 290 331 76 19 57 92 78 58 79 145 146 141 144 148 146 141 140 145 156 176 206 221 205 198 207
211 212 208 211 202 205 218 228 222 230 242 228 232 227 232 234 239 235 276 280 271 59 360 30 122 91 69 95 125 142 152 159 163 161 160 165 184 199 227 228 216 220 236
216 220 222 216 209 212 217 228 232 233 235 233 240 235 227 227 239 211 220 249 228 201 214 186 132 107 112 95 71 76 115 146 163 171 160 157 185 192 213 222 231 251 266
215 220 221 220 218 222 231 234 230 240 235 226 237 246 243 217 213 219 208 223 240 204 224 207 190 197 180 154 94 61 51 99 132 140 150 151 132 161 179 187 199 233 227
214 216 217 218 223 218 224 226 223 227 220 214 227 239 252 256 209 195 211 213 221 227 224 219 209 188 195 201 162 123 65 55 106 115 115 107 119 125 148 145 127 112 100
207 208 213 216 218 212 212 211 212 218 224 221 217 234 250 269 262 230 202 213 211 220 231 210 229 218 191 198 145 101 116 79 91 93 91 81 116 125 125 123 115 110 104
198 198 201 204 215 208 213 208 209 222 226 234 231 228 238 253 255 260 240 207 205 219 226 227 219 220 210 211 203 155 154 174 185 123 88 84 110 129 128 124 120 116 106
193 193 198 206 206 203 205 209 213 222 235 240 242 241 234 239 243 249 252 240 226 218 215 220 230 216 217 225 207 145 184 198 201 177 125 99 98 114 124 129 124 110 64
211 203 201 203 201 203 205 207 215 226 230 238 244 249 247 246 252 253 257 253 237 232 233 220 220 218 213 219 203 176 206 207 208 199 177 155 135 129 128 119 99 47 23
229 213 204 199 197 201 202 207 223 228 241 239 245 250 252 252 250 246 247 248 238 233 234 236 211 217 215 216 206 184 208 200 209 210 204 196 181 174 176 174 158 7 6
229 205 195 195 196 200 206 208 227 232 241 247 248 251 250 255 252 247 243 236 237 238 232 235 227 215 209 219 183 205 225 193 200 210 213 212 208 207 205 205 213 233 275
200 191 193 194 191 194 198 206 219 226 234 240 247 252 252 255 261 261 255 243 239 248 253 239 224 204 185 216 201 233 237 175 196 209 214 216 216 217 217 218 222 229 241
198 200 209 205 191 190 192 193 209 203 218 220 222 233 241 247 246 247 252 250 240 233 243 248 248 240 225 233 208 231 237 223 210 204 212 214 215 217 220 223 228 233 239
214 214 211 217 204 198 197 194 201 203 212 219 226 237 246 243 252 253 247 246 240 231 234 240 230 235 249 259 262 254 240 236 242 198 204 214 215 215 216 220 227 231 237
142 192 213 226 221 215 211 208 203 209 215 218 227 252 273 264 256 254 250 249 242 233 227 237 242 232 236 242 250 256 249 241 243 217 201 216 219 218 218 220 223 227 233
93 91 193 234 234 233 230 226 218 220 219 213 214 232 254 249 256 266 265 262 255 245 236 239 243 238 225 204 220 240 240 230 233 226 214 218 216 215 222 224 225 227 231
62 57 56 90 46 266 260 257 243 233 226 215 214 219 222 284 343 312 308 304 286 254 232 243 246 235 218 188 205 226 247 258 254 239 231 217 213 217 217 223 227 231 230
36 34 39 68 61 36 359 302 270 250 239 235 234 234 206 206 208 217 260 305 319 308 280 227 218 224 210 205 210 217 240 255 264 234 245 243 224 232 231 231 210 212 222
43 41 43 61 67 43 14 341 259 255 234 230 246 251 238 228 227 229 203 222 236 228 265 299 278 269 238 201 210 214 225 242 257 273 248 264 237 244 250 234 202 206 217
51 53 54 63 64 47 35 23 322 248 245 239 240 248 246 237 225 253 251 248 264 240 234 256 283 324 354 0 333 320 318 288 272 236 224 265 234 249 271 256 184 212 232
52 57 56 54 57 45 30 18 350 25 259 254 256 253 256 254 147 227 263 260 261 257 208 253 303 312 322 303 296 291 275 263 256 217 192 250 319 314 307 322 105 187 236
50 59 60 49 43 38 29 20 2 357 354 340 284 248 235 271 353 248 257 259 267 283 274 220 231 239 266 266 243 251 274 278 267 230 164 187 34 347 328 38 12 350 257